Change the Weather History Date:

Saturday, September 8, 2012

  Actual Average Record
Temperature  
Mean Temperature 83 °F 83 °F  
Max Temperature 90 °F 91 °F 96 °F (1996)
Min Temperature 76 °F 75 °F 67 °F (1917)
Degree Days  
Heating Degree Days 0 0  
Month to date heating degree days 0 0  
Since 1 July heating degree days 0 0  
Cooling Degree Days 18 18  
Month to date cooling degree days 144 144  
Year to date cooling degree days 3293 2868  
Growing Degree Days 33 (Base 50)    
Moisture  
Dew Point 73 °F    
Average Humidity 74    
Maximum Humidity 91    
Minimum Humidity 56    
Precipitation  
Precipitation 0.00 in 0.33 in 4.14 in (1930)
Month to date precipitation 0.79 2.63  
Year to date precipitation 36.59 43.70  
Sea Level Pressure  
Sea Level Pressure 29.94 in    
Wind  
Wind Speed 5 mph (SSW)    
Max Wind Speed 15 mph    
Max Gust Speed 21 mph    
Visibility 10 miles    
Events      
T = Trace of Precipitation, MM = Missing Value Source: NWS Daily Summary

Daily Weather History Graph

Daily Weather History Graph

Search for Another Location

Airport or City:

Trip Planner

Search our weather history database for the weather conditions in past years. The results will help you decide how hot, cold, wet, or windy it might be!

Date:

Astronomy

Sep. 08, 2012 Rise Set
Actual Time 7:10 AM EDT 7:39 PM EDT
Civil Twilight 6:46 AM EDT 8:02 PM EDT
Nautical Twilight 6:19 AM EDT 8:29 PM EDT
Astronomical Twilight 5:51 AM EDT 8:57 PM EDT
Moon 12:15 AM EDT (9/8) 2:10 PM EDT (9/8)
Length of Visible Light 13h 15m
Length of Day
12h 28m
Waning Gibbous, 49% of the Moon is Illuminated
Sep 8
Waning Gibbous
Sep 15
New
Sep 22
First Quarter
Sep 29
Full
Oct 8
Last Quarter

Hourly Weather History & Observations

Time (EDT) Temp. Heat Index Dew Point Humidity Pressure Visibility Wind Dir Wind Speed Gust Speed Precip Events Conditions
12:53 AM 79.0 °F - 73.9 °F 84% 29.94 in 10.0 mi Calm Calm - N/A   Clear
1:53 AM 78.1 °F - 73.9 °F 87% 29.92 in 10.0 mi Calm Calm - N/A   Clear
2:53 AM 78.1 °F - 73.9 °F 87% 29.91 in 10.0 mi South 3.5 mph - N/A   Clear
3:53 AM 77.0 °F - 73.9 °F 90% 29.91 in 10.0 mi SSE 4.6 mph - N/A   Clear
4:53 AM 77.0 °F - 73.9 °F 90% 29.92 in 10.0 mi Calm Calm - N/A   Clear
5:53 AM 77.0 °F - 73.9 °F 90% 29.94 in 10.0 mi SSE 3.5 mph - N/A   Clear
6:53 AM 77.0 °F - 73.9 °F 90% 29.95 in 9.0 mi Calm Calm - N/A   Partly Cloudy
7:53 AM 78.1 °F - 75.0 °F 90% 29.97 in 9.0 mi Calm Calm - N/A   Clear
8:53 AM 81.0 °F 86.7 °F 75.0 °F 82% 29.98 in 10.0 mi SSE 4.6 mph - N/A   Clear
9:53 AM 84.9 °F 93.3 °F 75.0 °F 72% 29.99 in 10.0 mi SSE 3.5 mph - N/A   Partly Cloudy
10:19 AM 84.2 °F 90.9 °F 73.4 °F 70% 29.98 in 10.0 mi SW 5.8 mph - N/A   Mostly Cloudy
10:28 AM 86.0 °F 93.4 °F 73.4 °F 66% 29.98 in 10.0 mi Variable 3.5 mph - N/A   Scattered Clouds
10:53 AM 87.1 °F 94.5 °F 73.0 °F 63% 29.99 in 10.0 mi SW 9.2 mph - N/A   Scattered Clouds
11:53 AM 88.0 °F 95.6 °F 73.0 °F 61% 29.98 in 10.0 mi SW 9.2 mph - N/A   Partly Cloudy
12:53 PM 88.0 °F 95.6 °F 73.0 °F 61% 29.97 in 10.0 mi WSW 9.2 mph 16.1 mph N/A   Scattered Clouds
1:53 PM 89.1 °F 96.0 °F 72.0 °F 57% 29.95 in 10.0 mi SW 8.1 mph 20.7 mph N/A   Partly Cloudy
2:53 PM 89.1 °F 97.0 °F 73.0 °F 59% 29.93 in 10.0 mi SW 12.7 mph 20.7 mph N/A   Partly Cloudy
3:53 PM 88.0 °F 95.6 °F 73.0 °F 61% 29.91 in 10.0 mi SW 12.7 mph 20.7 mph N/A   Partly Cloudy
4:53 PM 88.0 °F 94.7 °F 72.0 °F 59% 29.90 in 10.0 mi SW 10.4 mph - N/A   Clear
5:53 PM 87.1 °F 93.6 °F 72.0 °F 61% 29.90 in 10.0 mi SW 9.2 mph - N/A   Clear
6:53 PM 84.9 °F 90.7 °F 72.0 °F 65% 29.92 in 10.0 mi WSW 9.2 mph - N/A   Partly Cloudy
7:53 PM 84.0 °F 90.2 °F 73.0 °F 69% 29.92 in 10.0 mi SW 6.9 mph - N/A   Clear
8:53 PM 82.9 °F 88.8 °F 73.0 °F 72% 29.93 in 10.0 mi SW 4.6 mph - N/A   Clear
9:53 PM 82.0 °F 87.9 °F 73.9 °F 76% 29.94 in 10.0 mi SW 4.6 mph - N/A   Clear
10:53 PM 82.0 °F 87.9 °F 73.9 °F 76% 29.94 in 10.0 mi SW 3.5 mph - N/A   Clear
11:53 PM 81.0 °F 85.8 °F 73.0 °F 77% 29.93 in 10.0 mi Calm Calm - N/A   Clear